TGL8421 LFBZ-LICC

Flight info

Callsign TGL8421
Flight time 2h 7m
Altitude 34000
Route SOVOS G17 ORTEZ DCT TBO DCT PERDU N862 POSSY M601 GRAUS/N0448F360 M601 BCN N725 ORKUM M603 ELSAG DCT ALG/N0446F370 DCT QUENN DCT RONAB DCT BEKIV/N0373F190 M871 LIBRO
Aircraft A320/M-SDE3FGHIRWY/LB1

Departure

Time 2026-04-27 06:59
Airport Biarritz Pays Basque airport (LFBZ)

Arrival

Time 2026-04-27 09:07
Airport Catania-Fontanarossa Airport (LICC)
Time Latitude Longitude Altitude Speed Heading
2026-04-27 06:37 43.47132 -1.53001 247 ft 0 kts 359°
2026-04-27 06:50 43.47128 -1.53001 246 ft 3 kts 359°
2026-04-27 06:50 43.47105 -1.52999 246 ft 3 kts 349°
2026-04-27 06:51 43.47083 -1.52991 246 ft 3 kts 334°
2026-04-27 06:51 43.47064 -1.52974 246 ft 3 kts 308°
2026-04-27 06:51 43.47055 -1.52949 246 ft 1 kts 270°
2026-04-27 06:51 43.47055 -1.52948 246 ft 0 kts 269°
2026-04-27 06:53 43.47055 -1.52959 246 ft 4 kts 269°
2026-04-27 06:53 43.47055 -1.52996 246 ft 4 kts 270°
2026-04-27 06:53 43.47055 -1.53030 247 ft 3 kts 270°
2026-04-27 06:54 43.47055 -1.53051 247 ft 1 kts 270°
2026-04-27 06:54 43.47055 -1.53055 247 ft 0 kts 270°
2026-04-27 06:55 43.47055 -1.53056 247 ft 1 kts 270°
2026-04-27 06:55 43.47053 -1.53105 247 ft 5 kts 265°
2026-04-27 06:56 43.47045 -1.53150 248 ft 8 kts 245°
2026-04-27 06:56 43.46997 -1.53201 248 ft 8 kts 195°
2026-04-27 06:56 43.46942 -1.53190 248 ft 10 kts 155°
2026-04-27 06:56 43.46854 -1.53188 248 ft 16 kts 217°
2026-04-27 06:57 43.46833 -1.53346 250 ft 19 kts 271°
2026-04-27 06:57 43.46834 -1.53538 251 ft 21 kts 269°
2026-04-27 06:57 43.46842 -1.53691 252 ft 9 kts 234°
2026-04-27 06:57 43.46822 -1.53679 253 ft 2 kts 111°
2026-04-27 06:58 43.46824 -1.53659 252 ft 4 kts 83°
2026-04-27 06:58 43.46826 -1.53613 252 ft 0 kts 89°
2026-04-27 06:58 43.46830 -1.53371 250 ft 64 kts 89°
2026-04-27 06:59 43.46838 -1.52432 242 ft 129 kts 89°
2026-04-27 06:59 43.46857 -1.50994 454 ft 157 kts 88°
2026-04-27 06:59 43.46875 -1.49489 1079 ft 158 kts 89°
2026-04-27 06:59 43.46888 -1.47956 1725 ft 161 kts 89°
2026-04-27 07:00 43.46889 -1.46396 2241 ft 169 kts 95°
2026-04-27 07:00 43.46593 -1.44730 2460 ft 191 kts 104°
2026-04-27 07:00 43.46272 -1.42839 2685 ft 214 kts 102°
2026-04-27 07:00 43.45956 -1.40781 2973 ft 234 kts 101°
2026-04-27 07:01 43.45604 -1.38448 3326 ft 256 kts 101°
2026-04-27 07:01 43.45237 -1.36012 4020 ft 263 kts 101°
2026-04-27 07:01 43.44860 -1.33535 4844 ft 266 kts 101°
2026-04-27 07:01 43.44474 -1.31036 5672 ft 268 kts 101°
2026-04-27 07:02 43.44084 -1.28523 6498 ft 270 kts 102°
2026-04-27 07:02 43.43689 -1.25983 7293 ft 273 kts 102°
2026-04-27 07:02 43.43284 -1.23405 8029 ft 278 kts 102°
2026-04-27 07:02 43.42871 -1.20788 8748 ft 283 kts 102°
2026-04-27 07:03 43.42456 -1.18154 9441 ft 287 kts 102°
2026-04-27 07:03 43.42031 -1.15449 10145 ft 291 kts 102°
2026-04-27 07:03 43.41595 -1.12655 10487 ft 310 kts 101°
2026-04-27 07:03 43.41168 -1.09631 10638 ft 334 kts 103°
2026-04-27 07:04 43.40271 -1.06620 10974 ft 348 kts 124°
2026-04-27 07:04 43.38841 -1.03917 11593 ft 352 kts 127°
2026-04-27 07:04 43.37370 -1.01195 12249 ft 356 kts 127°
2026-04-27 07:04 43.35882 -0.98451 12885 ft 360 kts 127°
2026-04-27 07:05 43.34378 -0.95681 13499 ft 364 kts 127°
2026-04-27 07:05 43.32858 -0.92877 14104 ft 367 kts 127°
2026-04-27 07:05 43.31322 -0.90050 14709 ft 370 kts 127°
2026-04-27 07:05 43.29778 -0.87213 15297 ft 373 kts 127°
2026-04-27 07:06 43.28743 -0.85313 15679 ft 375 kts 127°
2026-04-27 07:06 43.27175 -0.82432 16233 ft 379 kts 127°
2026-04-27 07:06 43.25592 -0.79531 16786 ft 382 kts 127°
2026-04-27 07:06 43.23992 -0.76605 17325 ft 385 kts 127°
2026-04-27 07:07 43.22381 -0.73657 17854 ft 388 kts 127°
2026-04-27 07:07 43.20757 -0.70677 18370 ft 391 kts 127°
2026-04-27 07:07 43.19125 -0.67687 18882 ft 394 kts 127°
2026-04-27 07:07 43.17473 -0.64665 19380 ft 397 kts 128°
2026-04-27 07:08 43.15810 -0.61630 19872 ft 400 kts 128°
2026-04-27 07:08 43.14138 -0.58579 20363 ft 403 kts 128°
2026-04-27 07:08 43.12444 -0.55489 20846 ft 406 kts 128°
2026-04-27 07:08 43.10738 -0.52381 21316 ft 410 kts 128°
2026-04-27 07:09 43.09020 -0.49257 21766 ft 412 kts 128°
2026-04-27 07:09 43.07309 -0.46153 22198 ft 415 kts 128°
2026-04-27 07:09 43.05543 -0.42952 22629 ft 418 kts 128°
2026-04-27 07:09 43.03789 -0.39774 23038 ft 420 kts 128°
2026-04-27 07:10 43.02041 -0.36618 23432 ft 423 kts 129°
2026-04-27 07:10 42.99985 -0.33761 23821 ft 423 kts 141°
2026-04-27 07:10 42.97732 -0.31160 24191 ft 425 kts 141°
2026-04-27 07:10 42.95457 -0.28554 24562 ft 428 kts 141°
2026-04-27 07:11 42.93172 -0.25946 24918 ft 430 kts 141°
2026-04-27 07:11 42.90868 -0.23320 25264 ft 432 kts 141°
2026-04-27 07:11 42.88560 -0.20696 25598 ft 433 kts 141°
2026-04-27 07:11 42.86238 -0.18061 25926 ft 435 kts 141°
2026-04-27 07:12 42.83907 -0.15412 26236 ft 437 kts 141°
2026-04-27 07:12 42.81568 -0.12753 26553 ft 439 kts 141°
2026-04-27 07:12 42.79221 -0.10082 26845 ft 440 kts 141°
2026-04-27 07:12 42.76865 -0.07400 27136 ft 442 kts 141°
2026-04-27 07:13 42.74501 -0.04715 27411 ft 444 kts 141°
2026-04-27 07:13 42.72121 -0.02021 27690 ft 446 kts 141°
2026-04-27 07:13 42.69732 0.00677 27957 ft 447 kts 141°
2026-04-27 07:13 42.67328 0.03389 28224 ft 449 kts 140°
2026-04-27 07:14 42.64923 0.06101 28488 ft 451 kts 140°
2026-04-27 07:14 42.62504 0.08828 28731 ft 452 kts 140°
2026-04-27 07:14 42.60083 0.11559 28964 ft 454 kts 140°
2026-04-27 07:14 42.57651 0.14301 29183 ft 456 kts 140°
2026-04-27 07:15 42.55206 0.17051 29387 ft 457 kts 140°
2026-04-27 07:15 42.52749 0.19812 29596 ft 459 kts 140°
2026-04-27 07:15 42.50291 0.22569 29802 ft 460 kts 140°
2026-04-27 07:15 42.47821 0.25339 30014 ft 461 kts 140°
2026-04-27 07:16 42.45345 0.28115 30202 ft 462 kts 140°
2026-04-27 07:16 42.42869 0.30889 30479 ft 461 kts 140°
2026-04-27 07:16 42.40404 0.33650 30757 ft 460 kts 140°
2026-04-27 07:16 42.37936 0.36407 31017 ft 460 kts 140°
2026-04-27 07:17 42.35502 0.39125 31265 ft 459 kts 140°
2026-04-27 07:17 42.33038 0.41871 31520 ft 458 kts 140°
2026-04-27 07:17 42.30545 0.44643 31776 ft 458 kts 140°
2026-04-27 07:17 42.28089 0.47367 32018 ft 457 kts 140°
2026-04-27 07:18 42.25667 0.50049 32249 ft 457 kts 140°
2026-04-27 07:18 42.23215 0.52765 32492 ft 456 kts 140°
2026-04-27 07:18 42.20763 0.55483 32720 ft 455 kts 140°
2026-04-27 07:18 42.18318 0.58191 32952 ft 455 kts 140°
2026-04-27 07:19 42.15869 0.60897 33172 ft 455 kts 140°
2026-04-27 07:19 42.13429 0.63589 33385 ft 454 kts 140°
2026-04-27 07:19 42.10983 0.66290 33618 ft 454 kts 140°
2026-04-27 07:19 42.08542 0.68987 33839 ft 454 kts 140°
2026-04-27 07:20 42.06105 0.71677 34056 ft 453 kts 140°
2026-04-27 07:20 42.01232 0.77036 34166 ft 452 kts 140°
2026-04-27 07:21 41.96364 0.82371 34165 ft 451 kts 140°
2026-04-27 07:21 41.91494 0.87697 34164 ft 451 kts 140°
2026-04-27 07:22 41.86626 0.93019 34165 ft 452 kts 140°
2026-04-27 07:22 41.81745 0.98352 34163 ft 452 kts 140°
2026-04-27 07:23 41.76862 1.03669 34159 ft 453 kts 140°
2026-04-27 07:23 41.72005 1.09035 34151 ft 452 kts 135°
2026-04-27 07:24 41.68152 1.15590 34150 ft 448 kts 117°
2026-04-27 07:24 41.65296 1.22993 34147 ft 448 kts 115°
2026-04-27 07:25 41.62425 1.30391 34147 ft 449 kts 116°
2026-04-27 07:25 41.59531 1.37789 34149 ft 449 kts 116°
2026-04-27 07:26 41.56641 1.45181 34149 ft 449 kts 115°
2026-04-27 07:26 41.53749 1.52570 34146 ft 450 kts 115°
2026-04-27 07:27 41.50863 1.59919 34149 ft 450 kts 115°
2026-04-27 07:27 41.47954 1.67311 34150 ft 450 kts 115°
2026-04-27 07:28 41.45045 1.74698 34152 ft 450 kts 115°
2026-04-27 07:28 41.42126 1.82083 34154 ft 450 kts 116°
2026-04-27 07:29 41.39199 1.89471 34154 ft 451 kts 116°
2026-04-27 07:29 41.36266 1.96839 34154 ft 451 kts 116°
2026-04-27 07:30 41.33326 2.04214 34154 ft 451 kts 116°
2026-04-27 07:30 41.30667 2.11743 34146 ft 448 kts 105°
2026-04-27 07:31 41.29252 2.19789 34161 ft 448 kts 100°
2026-04-27 07:31 41.27895 2.27887 34192 ft 449 kts 100°
2026-04-27 07:32 41.26550 2.35995 34178 ft 449 kts 100°
2026-04-27 07:32 41.25210 2.44102 34167 ft 449 kts 100°
2026-04-27 07:33 41.23850 2.52200 34161 ft 449 kts 101°
2026-04-27 07:33 41.22482 2.60305 34155 ft 450 kts 100°
2026-04-27 07:34 41.21117 2.68418 34154 ft 450 kts 101°
2026-04-27 07:34 41.19744 2.76527 34152 ft 450 kts 101°
2026-04-27 07:35 41.18370 2.84626 34149 ft 451 kts 101°
2026-04-27 07:35 41.16979 2.92752 34149 ft 451 kts 101°
2026-04-27 07:36 41.15591 3.00823 34151 ft 452 kts 101°
2026-04-27 07:36 41.14177 3.09007 34151 ft 452 kts 101°
2026-04-27 07:37 41.12779 3.17087 34154 ft 453 kts 101°
2026-04-27 07:37 41.11355 3.25271 34152 ft 453 kts 101°
2026-04-27 07:38 41.09936 3.33403 34152 ft 453 kts 101°
2026-04-27 07:38 41.08513 3.41489 34154 ft 454 kts 101°
2026-04-27 07:39 41.07066 3.49628 34157 ft 454 kts 101°
2026-04-27 07:39 41.05625 3.57775 34162 ft 455 kts 101°
2026-04-27 07:40 41.04180 3.65932 34162 ft 455 kts 101°
2026-04-27 07:40 41.02718 3.74071 34159 ft 454 kts 101°
2026-04-27 07:41 41.01252 3.82207 34158 ft 455 kts 101°
2026-04-27 07:41 40.99783 3.90358 34158 ft 455 kts 101°
2026-04-27 07:42 40.98303 3.98507 34157 ft 455 kts 102°
2026-04-27 07:42 40.96814 4.06653 34156 ft 455 kts 102°
2026-04-27 07:43 40.95328 4.14799 34153 ft 456 kts 102°
2026-04-27 07:43 40.93823 4.22948 34155 ft 456 kts 102°
2026-04-27 07:44 40.92316 4.31095 34161 ft 456 kts 102°
2026-04-27 07:44 40.90803 4.39251 34164 ft 457 kts 102°
2026-04-27 07:45 40.89287 4.47398 34166 ft 457 kts 102°
2026-04-27 07:45 40.87774 4.55544 34168 ft 456 kts 103°
2026-04-27 07:46 40.86255 4.63673 34170 ft 456 kts 103°
2026-04-27 07:46 40.85209 4.71922 34168 ft 455 kts 95°
2026-04-27 07:47 40.84449 4.80162 34169 ft 455 kts 96°
2026-04-27 07:47 40.83681 4.88457 34168 ft 455 kts 96°
2026-04-27 07:48 40.82903 4.96752 34169 ft 455 kts 96°
2026-04-27 07:48 40.82123 5.05038 34169 ft 455 kts 96°
2026-04-27 07:49 40.81339 5.13325 34166 ft 455 kts 96°
2026-04-27 07:49 40.80543 5.21601 34170 ft 455 kts 96°
2026-04-27 07:50 40.79745 5.29885 34170 ft 455 kts 96°
2026-04-27 07:50 40.78938 5.38154 34170 ft 454 kts 97°
2026-04-27 07:51 40.78127 5.46418 34169 ft 454 kts 97°
2026-04-27 07:51 40.77316 5.54679 34170 ft 454 kts 97°
2026-04-27 07:52 40.76497 5.62941 34171 ft 454 kts 97°
2026-04-27 07:52 40.75668 5.71187 34170 ft 453 kts 97°
2026-04-27 07:53 40.74829 5.79425 34169 ft 453 kts 97°
2026-04-27 07:53 40.73991 5.87611 34168 ft 453 kts 97°
2026-04-27 07:54 40.73156 5.95843 34166 ft 453 kts 97°
2026-04-27 07:54 40.72303 6.04133 34166 ft 453 kts 97°
2026-04-27 07:55 40.71445 6.12304 34169 ft 453 kts 98°
2026-04-27 07:55 40.70578 6.20533 34170 ft 453 kts 98°
2026-04-27 07:56 40.69710 6.28755 34171 ft 453 kts 98°
2026-04-27 07:56 40.68841 6.36976 34169 ft 453 kts 98°
2026-04-27 07:57 40.67968 6.45197 34169 ft 453 kts 98°
2026-04-27 07:57 40.67079 6.53416 34167 ft 453 kts 98°
2026-04-27 07:58 40.66175 6.61625 34167 ft 453 kts 98°
2026-04-27 07:58 40.65268 6.69840 34167 ft 453 kts 98°
2026-04-27 07:59 40.64514 6.76668 34168 ft 453 kts 98°
2026-04-27 07:59 40.63152 6.88997 34170 ft 453 kts 98°
2026-04-27 08:00 40.62238 6.97198 34170 ft 453 kts 98°
2026-04-27 08:00 40.61316 7.05406 34167 ft 453 kts 98°
2026-04-27 08:01 40.60387 7.13609 34165 ft 453 kts 98°
2026-04-27 08:01 40.59450 7.21800 34165 ft 453 kts 99°
2026-04-27 08:02 40.58507 7.30004 34162 ft 453 kts 99°
2026-04-27 08:02 40.57563 7.38141 34162 ft 453 kts 99°
2026-04-27 08:03 40.56649 7.46331 34163 ft 453 kts 95°
2026-04-27 08:03 40.56937 7.54592 34162 ft 453 kts 83°
2026-04-27 08:04 40.57666 7.62811 34159 ft 453 kts 83°
2026-04-27 08:04 40.58367 7.71037 34159 ft 452 kts 83°
2026-04-27 08:05 40.59065 7.79259 34158 ft 452 kts 83°
2026-04-27 08:05 40.59760 7.87473 34154 ft 452 kts 84°
2026-04-27 08:06 40.60446 7.95681 34152 ft 451 kts 84°
2026-04-27 08:06 40.61129 8.03900 34152 ft 451 kts 84°
2026-04-27 08:07 40.61814 8.12114 34149 ft 452 kts 84°
2026-04-27 08:07 40.62475 8.20344 34151 ft 452 kts 86°
2026-04-27 08:08 40.62014 8.28567 34147 ft 452 kts 104°
2026-04-27 08:08 40.60475 8.36582 34146 ft 453 kts 104°
2026-04-27 08:09 40.58936 8.44623 34152 ft 454 kts 104°
2026-04-27 08:09 40.57396 8.52682 34158 ft 454 kts 104°
2026-04-27 08:10 40.55848 8.60720 34160 ft 454 kts 104°
2026-04-27 08:10 40.54282 8.68765 34160 ft 454 kts 105°
2026-04-27 08:11 40.52710 8.76814 34159 ft 454 kts 104°
2026-04-27 08:11 40.51139 8.84850 34157 ft 454 kts 104°
2026-04-27 08:12 40.49569 8.92836 34157 ft 455 kts 104°
2026-04-27 08:12 40.47984 9.00876 34160 ft 455 kts 105°
2026-04-27 08:13 40.46394 9.08919 34156 ft 455 kts 105°
2026-04-27 08:13 40.44796 9.16956 34154 ft 455 kts 105°
2026-04-27 08:14 40.43194 9.24995 34155 ft 455 kts 105°
2026-04-27 08:14 40.41580 9.33037 34156 ft 456 kts 105°
2026-04-27 08:15 40.39962 9.41075 34158 ft 455 kts 105°
2026-04-27 08:15 40.38338 9.49104 34161 ft 455 kts 105°
2026-04-27 08:16 40.36714 9.57131 34161 ft 455 kts 105°
2026-04-27 08:16 40.35082 9.65146 34162 ft 455 kts 105°
2026-04-27 08:17 40.33444 9.73163 34163 ft 455 kts 105°
2026-04-27 08:17 40.31802 9.81162 34164 ft 455 kts 105°
2026-04-27 08:18 40.30159 9.89178 34166 ft 455 kts 105°
2026-04-27 08:18 40.28508 9.97169 34168 ft 455 kts 105°
2026-04-27 08:19 40.26849 10.05157 34168 ft 454 kts 105°
2026-04-27 08:19 40.25185 10.13147 34168 ft 455 kts 105°
2026-04-27 08:20 40.23515 10.21123 34168 ft 455 kts 105°
2026-04-27 08:20 40.21842 10.29106 34168 ft 455 kts 105°
2026-04-27 08:21 40.20164 10.37083 34166 ft 455 kts 105°
2026-04-27 08:21 40.18488 10.45003 34165 ft 455 kts 105°
2026-04-27 08:22 40.16794 10.52965 34160 ft 455 kts 105°
2026-04-27 08:22 40.15100 10.60944 34164 ft 455 kts 105°
2026-04-27 08:23 40.13412 10.68930 34166 ft 456 kts 105°
2026-04-27 08:23 40.11703 10.76906 34166 ft 456 kts 105°
2026-04-27 08:24 40.09978 10.84886 34167 ft 457 kts 105°
2026-04-27 08:24 40.08249 10.92877 34167 ft 458 kts 105°
2026-04-27 08:25 40.06516 11.00873 34170 ft 458 kts 105°
2026-04-27 08:25 40.04781 11.08875 34169 ft 458 kts 105°
2026-04-27 08:26 40.03033 11.16877 34163 ft 458 kts 105°
2026-04-27 08:26 40.01282 11.24878 34161 ft 459 kts 105°
2026-04-27 08:27 39.99523 11.32877 34161 ft 459 kts 106°
2026-04-27 08:27 39.97757 11.40882 34155 ft 460 kts 106°
2026-04-27 08:28 39.95983 11.48898 34156 ft 461 kts 106°
2026-04-27 08:28 39.94196 11.56928 34159 ft 461 kts 106°
2026-04-27 08:29 39.92410 11.64938 34161 ft 460 kts 106°
2026-04-27 08:29 39.90615 11.72947 34163 ft 460 kts 106°
2026-04-27 08:30 39.88825 11.80889 34163 ft 460 kts 108°
2026-04-27 08:30 39.85984 11.88316 34161 ft 459 kts 127°
2026-04-27 08:31 39.81505 11.94158 34159 ft 456 kts 146°
2026-04-27 08:31 39.76322 11.98926 34161 ft 457 kts 146°
2026-04-27 08:32 39.71132 12.03700 34159 ft 457 kts 146°
2026-04-27 08:32 39.65946 12.08469 34160 ft 457 kts 146°
2026-04-27 08:33 39.60748 12.13226 34162 ft 458 kts 146°
2026-04-27 08:33 39.55538 12.17982 34159 ft 458 kts 146°
2026-04-27 08:34 39.50329 12.22742 34157 ft 458 kts 146°
2026-04-27 08:34 39.45115 12.27497 34160 ft 458 kts 146°
2026-04-27 08:35 39.39896 12.32239 34162 ft 459 kts 147°
2026-04-27 08:35 39.34657 12.36983 34162 ft 459 kts 147°
2026-04-27 08:36 39.29513 12.41880 34159 ft 461 kts 142°
2026-04-27 08:36 39.24634 12.47264 34156 ft 462 kts 141°
2026-04-27 08:37 39.19806 12.52722 34149 ft 462 kts 140°
2026-04-27 08:37 39.14972 12.58180 34150 ft 462 kts 141°
2026-04-27 08:38 39.10107 12.63601 34151 ft 463 kts 141°
2026-04-27 08:38 39.05225 12.69009 34151 ft 463 kts 141°
2026-04-27 08:39 39.00337 12.74421 34151 ft 464 kts 141°
2026-04-27 08:39 38.95450 12.79838 34150 ft 464 kts 141°
2026-04-27 08:40 38.90547 12.85255 34151 ft 465 kts 142°
2026-04-27 08:40 38.85636 12.90656 34152 ft 465 kts 142°
2026-04-27 08:41 38.80724 12.96065 34152 ft 466 kts 142°
2026-04-27 08:41 38.75837 13.01433 34152 ft 466 kts 142°
2026-04-27 08:42 38.70908 13.06835 34150 ft 466 kts 142°
2026-04-27 08:42 38.65975 13.12240 34146 ft 467 kts 142°
2026-04-27 08:43 38.61026 13.17640 34143 ft 468 kts 142°
2026-04-27 08:43 38.56072 13.23042 34141 ft 468 kts 142°
2026-04-27 08:44 38.51115 13.28439 34133 ft 469 kts 143°
2026-04-27 08:44 38.48622 13.31145 33660 ft 472 kts 143°
2026-04-27 08:44 38.46094 13.33888 32523 ft 481 kts 142°
2026-04-27 08:45 38.43549 13.36650 31901 ft 477 kts 142°
2026-04-27 08:45 38.41034 13.39380 31265 ft 473 kts 142°
2026-04-27 08:45 38.38539 13.42086 30611 ft 470 kts 142°
2026-04-27 08:45 38.36055 13.44777 30018 ft 466 kts 142°
2026-04-27 08:46 38.33590 13.47444 29383 ft 463 kts 142°
2026-04-27 08:46 38.31145 13.50084 28775 ft 460 kts 142°
2026-04-27 08:46 38.28713 13.52708 28170 ft 456 kts 142°
2026-04-27 08:46 38.26302 13.55310 27570 ft 453 kts 142°
2026-04-27 08:47 38.23904 13.57892 26978 ft 449 kts 141°
2026-04-27 08:47 38.21525 13.60447 26392 ft 446 kts 141°
2026-04-27 08:47 38.19165 13.62977 25834 ft 442 kts 141°
2026-04-27 08:47 38.16842 13.65468 25260 ft 430 kts 141°
2026-04-27 08:48 38.14606 13.67871 24759 ft 414 kts 141°
2026-04-27 08:48 38.12444 13.70196 24257 ft 411 kts 141°
2026-04-27 08:48 38.10240 13.72560 23765 ft 408 kts 140°
2026-04-27 08:48 38.08071 13.74880 23280 ft 405 kts 141°
2026-04-27 08:49 38.05923 13.77171 22806 ft 402 kts 141°
2026-04-27 08:49 38.03789 13.79445 22339 ft 400 kts 141°
2026-04-27 08:49 38.02380 13.80949 22026 ft 398 kts 140°
2026-04-27 08:49 38.00268 13.83206 21554 ft 396 kts 141°
2026-04-27 08:50 37.98167 13.85448 21070 ft 394 kts 141°
2026-04-27 08:50 37.96075 13.87677 20590 ft 392 kts 141°
2026-04-27 08:50 37.93993 13.89894 20096 ft 391 kts 141°
2026-04-27 08:50 37.91914 13.92108 19599 ft 390 kts 141°
2026-04-27 08:51 37.89843 13.94317 19089 ft 389 kts 141°
2026-04-27 08:51 37.87786 13.96505 18574 ft 381 kts 141°
2026-04-27 08:51 37.85789 13.98625 18102 ft 368 kts 141°
2026-04-27 08:51 37.83833 14.00700 17626 ft 367 kts 141°
2026-04-27 08:52 37.81871 14.02777 17159 ft 367 kts 141°
2026-04-27 08:52 37.79919 14.04846 16689 ft 367 kts 141°
2026-04-27 08:52 37.77960 14.06920 16232 ft 366 kts 141°
2026-04-27 08:52 37.76014 14.08982 15773 ft 365 kts 141°
2026-04-27 08:53 37.74063 14.11045 15289 ft 365 kts 141°
2026-04-27 08:53 37.72118 14.13096 14826 ft 364 kts 141°
2026-04-27 08:53 37.70171 14.15144 14340 ft 362 kts 141°
2026-04-27 08:53 37.68270 14.17143 13886 ft 348 kts 141°
2026-04-27 08:54 37.66422 14.19090 13436 ft 346 kts 141°
2026-04-27 08:54 37.64574 14.21038 12973 ft 346 kts 141°
2026-04-27 08:54 37.62728 14.22983 12518 ft 345 kts 141°
2026-04-27 08:54 37.60892 14.24916 12037 ft 344 kts 141°
2026-04-27 08:55 37.59062 14.26844 11562 ft 338 kts 141°
2026-04-27 08:55 37.57281 14.28715 11110 ft 332 kts 141°
2026-04-27 08:55 37.55505 14.30578 10646 ft 332 kts 141°
2026-04-27 08:55 37.53764 14.32407 10440 ft 316 kts 141°
2026-04-27 08:56 37.52122 14.34133 10114 ft 301 kts 141°
2026-04-27 08:56 37.50535 14.35799 9773 ft 294 kts 141°
2026-04-27 08:56 37.48965 14.37441 9654 ft 293 kts 141°
2026-04-27 08:56 37.47392 14.39084 9366 ft 296 kts 141°
2026-04-27 08:57 37.44248 14.42362 8734 ft 285 kts 140°
2026-04-27 08:57 37.42937 14.44098 8610 ft 263 kts 124°
2026-04-27 08:57 37.42118 14.46056 8469 ft 245 kts 109°
2026-04-27 08:58 37.41729 14.48120 7976 ft 245 kts 95°
2026-04-27 08:58 37.41777 14.50273 7316 ft 249 kts 83°
2026-04-27 08:58 37.41982 14.52444 6791 ft 247 kts 83°
2026-04-27 08:58 37.42171 14.54526 6612 ft 231 kts 83°
2026-04-27 08:59 37.42343 14.56459 6470 ft 215 kts 83°
2026-04-27 08:59 37.42502 14.58309 6047 ft 212 kts 83°
2026-04-27 08:59 37.42661 14.60135 5490 ft 213 kts 83°
2026-04-27 08:59 37.42824 14.61985 5177 ft 203 kts 83°
2026-04-27 09:00 37.42976 14.63711 5097 ft 196 kts 83°
2026-04-27 09:00 37.43125 14.65413 5016 ft 195 kts 83°
2026-04-27 09:00 37.43274 14.67107 5000 ft 195 kts 83°
2026-04-27 09:00 37.43421 14.68779 5012 ft 195 kts 83°
2026-04-27 09:01 37.43571 14.70494 5002 ft 193 kts 83°
2026-04-27 09:01 37.43717 14.72160 4631 ft 191 kts 83°
2026-04-27 09:01 37.43863 14.73827 4246 ft 191 kts 83°
2026-04-27 09:01 37.44007 14.75482 3871 ft 190 kts 83°
2026-04-27 09:02 37.44150 14.77128 3487 ft 189 kts 83°
2026-04-27 09:02 37.44292 14.78775 3094 ft 189 kts 83°
2026-04-27 09:02 37.44432 14.80382 3001 ft 188 kts 83°
2026-04-27 09:02 37.44575 14.82027 3006 ft 189 kts 83°
2026-04-27 09:03 37.44718 14.83678 3008 ft 190 kts 84°
2026-04-27 09:03 37.44860 14.85328 2996 ft 190 kts 83°
2026-04-27 09:03 37.45003 14.86988 2868 ft 191 kts 83°
2026-04-27 09:03 37.45145 14.88638 2645 ft 188 kts 83°
2026-04-27 09:04 37.45282 14.90237 2400 ft 179 kts 83°
2026-04-27 09:04 37.45411 14.91738 2168 ft 167 kts 84°
2026-04-27 09:04 37.45534 14.93169 1970 ft 161 kts 84°
2026-04-27 09:04 37.45651 14.94550 1747 ft 156 kts 84°
2026-04-27 09:05 37.45767 14.95904 1556 ft 155 kts 83°
2026-04-27 09:05 37.45881 14.97245 1349 ft 152 kts 82°
2026-04-27 09:05 37.45991 14.98540 1148 ft 148 kts 83°
2026-04-27 09:05 37.46101 14.99825 953 ft 147 kts 84°
2026-04-27 09:06 37.46210 15.01097 752 ft 146 kts 84°
2026-04-27 09:06 37.46318 15.02360 561 ft 145 kts 83°
2026-04-27 09:06 37.46424 15.03617 375 ft 145 kts 83°
2026-04-27 09:06 37.46529 15.04876 179 ft 144 kts 83°
2026-04-27 09:07 37.46635 15.06093 40 ft 107 kts 83°
2026-04-27 09:07 37.46669 15.06528 39 ft 35 kts 84°
2026-04-27 09:07 37.46693 15.06819 36 ft 22 kts 82°
2026-04-27 09:07 37.46761 15.06921 34 ft 15 kts 350°
2026-04-27 09:08 37.46813 15.06896 33 ft 7 kts 335°
2026-04-27 09:08 37.46819 15.06892 32 ft 0 kts 334°
2026-04-27 09:08 37.46821 15.06891 32 ft 2 kts 334°
2026-04-27 09:09 37.46858 15.06830 32 ft 10 kts 274°
2026-04-27 09:09 37.46880 15.06771 33 ft 7 kts 348°
2026-04-27 09:09 37.46914 15.06766 32 ft 4 kts 353°
2026-04-27 09:09 37.46925 15.06764 32 ft 1 kts 353°
2026-04-27 09:10 37.46931 15.06763 31 ft 0 kts 353°